LANDSAT 2

导读 | 星芒AI

LANDSAT 2 是美国国家航空航天局(NASA)于1975年1月22日发射的第二颗陆地卫星。它属于LANDSAT系列,主要用于地球资源监测和环境研究。该卫星搭载了多光谱扫描仪(MSS),能够获取地表影像,广泛应用于农业、林业、城市规划和地质调查等领域。LANDSAT 2 在轨运行至1982年,为后续遥感卫星的发展奠定了基础,是早期地球观测技术的重要组成部分。

基本信息
目录编号:
7615
目录名称:
LANDSAT 2
国际标识:
1975-004A
轨道中心:
EARTH
卫星名称:
LANDSAT 2
卫星全名:
--
卫星状态:
在轨 (已飞行18641 天)
发射日期:
1975-01-22 UTC
国别 :
美国 (US)
星等 :
--
轨道信息
数据来源 国际轨道数据
星历时间: 2026-02-03T22:00:55+0800
12小时前
查看轨道信息
半长轴: 7282.48km
偏心率: 0.0007977
轨道倾角: 99.022°
近地点辐角 323.998°
升交点赤经 352.111°
平近点角 36.064°
近地点: 898.533km
远地点: 910.153km
周期: 103.081分钟
每日圈数: 13.969596
详细信息
使用方式:
暂无
2D轨道图
3D轨道图
轨道高度分析图
轨道倾角分析图
轨道综合分析图
查看轨道综合分析图